Regional Weather Roundup
Issued by NWS

Home | Current Version | Previous Version | Graphics & Text | Print | Product List | Glossary Off
Versions: 1 2 3 4 5 6 7 8 9 10 11 12 13 14 15 16 17 18 19 20 21 22 23 24 25 26 27 28 29 30 31 32 33 34 35 36 37 38 39 40 41 42 43 44 45 46 47 48 49 50

000
ASUS43 KDMX 050207
RWRIA

WEATHER ROUNDUP FOR IOWA
NATIONAL WEATHER SERVICE DES MOINES IA
900 PM CDT MON MAY 04 2015

NOTE: "FAIR" INDICATES FEW OR NO CLOUDS BELOW 12,000 FEET WITH NO
SIGNIFICANT WEATHER AND/OR OBSTRUCTIONS TO VISIBILITY.

* - THESE STATIONS ARE NOT NWS STATIONS...THUS NOT UNDER NWS
QUALITY CONTROL.  THEY ALSO DO NOT REPORT WEATHER SUCH
AS PRECIPITATION OR FOG.

IAZ001>003-012>014-020>022-031>034-043>046-050300-
   NORTHWEST IOWA

CITY           SKY/WX    TMP DP  RH WIND       PRES   REMARKS
CARROLL *      CLOUDY    55  55 100 NE10      30.10S
CHEROKEE *     CLOUDY    59  46  63 E5        30.11S
DENISON *      CLOUDY    55  55 100 E10       30.08S
LE MARS *      CLEAR     61  45  55 E6        30.11S
ORANGE CITY *  CLEAR     59  43  55 E3        30.11S
SHELDON *      CLEAR     63  39  42 E9        30.11S
SIOUX CITY     CLOUDY    57  49  74 E5        30.10S
SPENCER        CLOUDY    61  39  44 E9        30.12F
STORM LAKE *   CLEAR     55  50  82 E10       30.12S
$$

IAZ055>058-069>071-079>083-090>094-050300-
   SOUTHWEST IOWA

CITY           SKY/WX    TMP DP  RH WIND       PRES   REMARKS
ATLANTIC *     CLOUDY    59  57  94 NE10      30.07R
AUDUBON *      CLOUDY    55  54  94 NE8       30.09F
CLARINDA *     LGT RAIN  64  64 100 NE8       30.06R
COUNCIL BLFS * CLOUDY    59  59 100 NE10      30.07R
CRESTON *      CLOUDY    63  63 100 E14       30.06F FOG
HARLAN  *      CLOUDY    57  57 100 NE14      30.10S
LAMONI         LGT RAIN  66  63  90 NE8       30.06R FOG
RED OAK *      CLOUDY    63  63 100 NE8       30.06R
SHENANDOAH *   LGT RAIN  64  64 100 E5G12     30.06R
$$

IAZ047>049-059>061-072>074-084-050300-
   CENTRAL IOWA

CITY           SKY/WX    TMP DP  RH WIND       PRES   REMARKS
AMES           CLOUDY    59  54  83 NE9       30.11S
ANKENY *       CLOUDY    63  61  94 NE7       30.09S
CHARITON *     RAIN      64  63  94 NE9       30.07S
DES MOINES     LGT RAIN  64  60  87 NE13      30.08S
GRINNELL*      HVY RAIN  63  61  94 N6        30.11R
KNOXVILLE *    CLOUDY    66  63  88 NE8       30.07R
MARSHALLTOWN   CLOUDY    60  58  92 N10       30.10S
PELLA *        LGT RAIN  64  64 100 N10       30.09R
PERRY *        CLOUDY    57  54  88 NE10      30.09S
$$

IAZ004>006-015-016-023>025-035-036-050300-
   NORTH CENTRAL IOWA

CITY           SKY/WX    TMP DP  RH WIND       PRES   REMARKS
ALGONA *       CLEAR     63  41  45 E6        30.14R
CLARION *      CLOUDY    59  54  82 NE7       30.12F
ESTHERVILLE    CLOUDY    59  37  44 E9        30.13S
FORT DODGE *   CLOUDY    57  48  72 E12       30.12F
MASON CITY     CLOUDY    59  44  57 NE8       30.15S
FOREST CITY *  CLEAR     59  37  44 NE6       30.14S
IOWA FALLS *   LGT RAIN  59  52  77 NE8       30.13F
$$

IAZ007>011-017>019-026>030-037>042-050>054-066-050300-
   NORTHEAST IOWA

CITY           SKY/WX    TMP DP  RH WIND       PRES   REMARKS
CEDAR RAPIDS   LGT RAIN  66  63  90 N6        30.08R
CHARLES CITY * CLOUDY    63  46  55 NE8       30.14R
CLINTON *      CLOUDY    66  61  82 E13       30.13R THUNDER
DECORAH *      MOCLDY    64  39  39 VRB6      30.14R
DUBUQUE        CLOUDY    67  58  72 NE6       30.12R
MONTICELLO *   CLOUDY    64  64 100 N7        30.10S
OELWEIN *      LGT RAIN  61  57  88 S5        30.14R
WATERLOO       LGT RAIN  60  56  86 E3        30.12R
$$

IAZ064-065-067-068-078-050300-
   EAST CENTRAL IOWA

CITY           SKY/WX    TMP DP  RH WIND       PRES   REMARKS
DAVENPORT      CLOUDY    67  60  78 E9        30.09R
IOWA CITY      CLOUDY    66  63  90 NE9       30.09S
MT. PLEASANT * CLOUDY    64  64 100 NE3       30.07R
MUSCATINE *    HVY RAIN  66  64  94 NE7G16    30.08R VSB 1
QUAD CITIES    LGT RAIN  67  62  84 SE6       30.08R
$$

IAZ062-063-075>077-085>089-095>099-050300-
   SOUTHEAST IOWA

CITY           SKY/WX    TMP DP  RH WIND       PRES   REMARKS
BURLINGTON     CLOUDY    65  61  87 SE6       30.05S
FAIRFIELD *    CLOUDY    68  63  83 SE10      30.06R
FORT MADISON * MOCLDY    64  61  88 SE7       30.06S
KEOKUK *       MOCLDY    66  63  88 NE5       30.05R
OSKALOOSA *    MOCLDY    66  63  88 NE9       30.06R
CENTERVILLE *  CLEAR     68  66  94 N8        30.06S
OTTUMWA        CLOUDY    68  64  87 NE8       30.04S
WASHINGTON *   CLOUDY    66  66 100 E8        30.07R
$$

ABBREVIATIONS USED IN REMARKS
   TC - TEMPERATURES IN CELSIUS
  WCI - WIND CHILL INDEX
   HX - HEAT INDEX
  VSB - VISIBILITY
$$




USA.gov is the U.S. government's official web portal to all federal, state and local government web resources and services.